OBJECT J, 68988

Orbit data source: Space-Track

You're viewing an Uncataloged Satellite

Recently launched and/or uncataloged satellites may have evolving metadata. Metadata may include but not limited to: Owner, Maufacturer, Bus, Motor, and Mission.

OBJECT J, 68988 is a satellite in SSO that was launched on Sun, 03 May 2026 UTC launched from the Air Force Western Test Range (AFWTR). Unknown objects in Earth's orbit typically refer to objects detected orbiting the Earth but have not yet been identified or cataloged. These objects could be anything from previously untracked satellites, spent rocket stages, debris from satellite collisions, or even natural meteoroids temporarily captured by Earth's gravity.

Loading next visibility...
Identifier
68988, 2026-100J
Orbit
SSO
Country
Flag of TBDTBD
Related business
None
Manufacturer
Unknown
Mission
Operational spacecraft
Bus & Motor
Unknown
Mass
Unknown
Launch date (UTC)
2026-05-03 (1 week ago)
Launch vehicle
Unknown
Launch site
Air Force Western Test Range (AFWTR)
Object type
Unknown
Shape & HBR
Unknown
Radar Cross Section
RCS unknown

Expand to show TLE details & history
Last TLE update: 6 hours ago

TLE from 6 hours ago
0 OBJECT J
1 68988U 26100J   26130.17982947  .00000895  00000-0  97189-4 0  9997
2 68988  97.7379  28.3299 0005094 281.0317  79.0328 14.90533405  1033
Epoch: 2026-05-10T04:18Z
TLE epoch observation values (Epoch: 2026-05-10T04:18:57.266Z)
Latitude
-0.00001°
Longitude
95.60468°
Altitude
598.638 km
Speed
7.561 km/s
True Right ascension
01h 53m 19s
True Declination
0° 00' 00"
Sunlit
Object was in daylight at epoch
Visualization orbit readout
Latitude
Unknown
Longitude
Unknown
Altitude
Unknown
Speed
Unknown
Apparent Right ascension
Unknown
Apparent Declination
Unknown
Sunlit
N/A
Visualization observer readout
Local Sidereal Time
18:57:28
Azimuth
Unknown
Elevation
Unknown
Doppler factor
Unknown
Orbital elements
Apogee altitude
596.842 km
Perigee altitude
589.74 km
Semi-major axis
6,971.428 km
Eccentricity
0.00051
Inclination
97.7379°
RAAN
28.3299°
Arg. of periapsis
281.0317°
True anomaly
79.09011°
Mean anomaly
79.0328°
Eccentric anomaly
79.06146°
Mean motion
3.72873 °/min
Orbital period
96.55 mins
BSTAR
0.000097189
Loading maneuver chart data...
Computing Atmospheric mass density...
Loading historical data...
Loading historical data...
Loading historical data...
Loading historical data...
Loading historical data...
Loading historical data...
Loading historical data...

Documentation

Showing up to 5 results
|